This demonstration page uses our WeatherBlox Daily Observations layout. Learn more.

Left ArrowRight Arrow

41.86663, -103.66717

Hourly Observations for November 9, 2016

Temp ( °F °C ) Dew Point ( °F °C ) Humidity (%) Winds ( mph kmh ) Pressure ( in mb ) Visibility ( mi km ) Precip ( " mm )
12:53 am 00:53 Clear 38 3.3 26 -3.3 62 62 E 9 15 30.34 1028 10 16 N/A
1:53 am 01:53 Clear 37 2.8 25 -3.9 62 62 E 9 15 30.33 1027 10 16 N/A
2:53 am 02:53 Clear 35 1.7 25 -3.9 67 67 ESE 8 13 30.32 1027 10 16 N/A
3:53 am 03:53 Clear 33 0.6 24 -4.4 70 70 E 3 6 30.31 1026 10 16 N/A
4:53 am 04:53 Clear 31 -0.6 25 -3.9 79 79 W 3 6 30.35 1028 10 16 N/A
5:53 am 05:53 Clear 29 -1.7 23 -5 78 78 NW 5 7 30.35 1028 10 16 N/A
6:53 am 06:53 Sunny 29 -1.7 23 -5 78 78 NNW 5 7 30.37 1029 10 16 N/A
7:53 am 07:53 Sunny 34 1.1 25 -3.9 70 70 NW 3 6 30.37 1028 10 16 N/A
8:53 am 08:53 Sunny 42 5.6 28 -2.2 58 58 VRB 3 6 30.34 1027 10 16 N/A
9:53 am 09:53 Sunny 50 10 28 -2.2 43 43 N N/A 30.30 1026 10 16 N/A
10:53 am 10:53 Sunny 59 15 29 -1.7 32 32 N N/A 30.25 1024 10 16 N/A
11:53 am 11:53 Sunny 67 19.4 26 -3.3 21 21 SSE 3 6 30.19 1022 10 16 N/A
12:53 pm 12:53 Sunny 72 22.2 24 -4.4 17 17 VRB 3 6 30.15 1021 10 16 N/A
1:53 pm 13:53 Sunny 73 22.8 23 -5 15 15 ENE 3 6 30.13 1020 10 16 N/A
2:53 pm 14:53 Sunny 74 23.3 24 -4.4 15 15 SE 6 9 30.12 1020 10 16 N/A
3:53 pm 15:53 Sunny 71 21.7 28 -2.2 20 20 SE 3 6 30.12 1020 10 16 N/A
4:53 pm 16:53 Clear 57 13.9 28 -2.2 33 33 ENE 6 9 30.16 1022 8 13 N/A
5:53 pm 17:53 Clear 51 10.6 26 -3.3 38 38 NNE 6 9 30.19 1022 10 16 N/A
6:53 pm 18:53 Clear 48 8.9 26 -3.3 42 42 E 7 11 30.20 1023 10 16 N/A
7:53 pm 19:53 Clear 47 8.3 26 -3.3 44 44 ESE 7 11 30.19 1022 10 16 N/A
8:53 pm 20:53 Clear 44 6.7 23 -5 43 43 E 6 9 30.18 1022 10 16 N/A
9:53 pm 21:53 Clear 41 5 23 -5 49 49 NNE 5 7 30.17 1022 10 16 N/A
10:53 pm 22:53 Clear 38 3.3 24 -4.4 57 57 N 6 9 30.16 1021 10 16 N/A
11:53 pm 23:53 Clear 36 2.2 23 -5 59 59 NW 5 7 30.15 1021 10 16 N/A

Powered by AerisWeather